Location: *
(50.3440°N, 18.6237°E)
Time: 17:06:33
(UTC+00:00)

Cosmos 2285 Rocket - Pass Details

Date: 30 November 2020
Orbit: 971 x 998 km, 74.0° (Epoch: 23 January)

Event Time Altitude Azimuth Distance (km) Brightness Sun altitude
Rises 15:10:15 0° 337° (NNW) 3,722 7.0 -4.2°
Reaches altitude 10° 15:12:56 10° 343° (NNW) 2,766 6.3 -4.6°
Maximum altitude 15:19:08 48° 57° (ENE) 1,274 4.3 -5.4°
Drops below altitude 10° 15:25:14 10° 131° (SE) 2,733 6.1 -6.3°
Sets 15:27:52 0° 137° (SE) 3,673 6.8 -6.7°
